Pineville, WV

8:59 AM EST on December 06, 2019 (GMT -0500)
Pineville

Weather History for KI16 - October, 2019

Change the Weather History Date:

Sunday, October 6, 2019

  Actual Average (KBKW) Record (KBKW)
Temperature  
Mean Temperature 66 °F -  
Max Temperature 78 °F 64 °F 88 °F (1941)
Min Temperature 55 °F 44 °F 27 °F (1964)
Cooling Degree Days 2    
Growing Degree Days 16 (Base 50)    
Moisture  
Dew Point 59 °F    
Average Humidity 79    
Maximum Humidity 98    
Minimum Humidity 53    
Precipitation  
Precipitation 0.00 in - - ()
Sea Level Pressure  
Sea Level Pressure 30.24 in    
Wind  
Wind Speed - (North)    
Max Wind Speed -    
Max Gust Speed -    
Visibility 10 miles    
Events Rain    
Averages and records for this station are not official NWS values.
T = Trace of Precipitation, MM = Missing Value Source: NWS Daily Summary

Daily Weather History Graph

Daily Weather History Graph

Search for Another Location

Airport or City:

Astronomy

Oct. 06, 2019 Rise Set
Actual Time 7:25 AM EDT 7:02 PM EDT
Civil Twilight 6:59 AM EDT 7:28 PM EDT
Nautical Twilight 6:29 AM EDT 7:58 PM EDT
Astronomical Twilight 5:59 AM EDT 8:28 PM EDT
Moon 3:31 PM EDT 12:31 AM EDT
Length of Visible Light 12h 28m
Length of Day
11h 36m
First Quarter, 59% of the Moon is Illuminated
Oct 6
First Quarter
Oct 13
Full
Oct 21
Last Quarter
Oct 27
New
Nov 4
First Quarter

Hourly Weather History & Observations

Time (EDT) Temp. Dew Point Humidity Pressure Visibility Wind Dir Wind Speed Gust Speed Precip Events Conditions
12:15 AM 58.8 °F 52.5 °F 80% 30.22 in 10.0 mi North - - N/A   Mostly Cloudy
12:35 AM 58.8 °F 52.7 °F 80% 30.22 in 10.0 mi North - - N/A   Scattered Clouds
12:55 AM 58.1 °F 52.3 °F 81% 30.22 in 10.0 mi North - - N/A   Clear
1:15 AM 57.7 °F 52.3 °F 82% 30.22 in 10.0 mi North - - N/A   Clear
1:35 AM 57.6 °F 52.3 °F 83% 30.22 in 10.0 mi North - - N/A   Clear
1:55 AM 57.6 °F 52.2 °F 82% 30.22 in 10.0 mi North - - N/A   Clear
2:15 AM 57.2 °F 52.3 °F 84% 30.22 in 10.0 mi North - - N/A   Clear
2:35 AM 57.2 °F 52.3 °F 84% 30.22 in 10.0 mi North - - N/A   Clear
2:55 AM 57.2 °F 52.2 °F 83% 30.23 in 10.0 mi North - - N/A   Clear
3:15 AM 57.0 °F 52.2 °F 84% 30.22 in 10.0 mi North - - N/A   Clear
3:35 AM 56.7 °F 52.5 °F 86% 30.22 in 10.0 mi North - - N/A   Clear
3:55 AM 56.3 °F 52.3 °F 87% 30.22 in 10.0 mi North - - N/A   Clear
4:15 AM 55.9 °F 52.2 °F 87% 30.23 in 10.0 mi North - - N/A   Clear
4:35 AM 55.4 °F 52.0 °F 88% 30.23 in 10.0 mi North - - N/A   Scattered Clouds
4:55 AM 56.3 °F 52.3 °F 87% 30.23 in 10.0 mi North - - N/A   Overcast
5:15 AM 57.2 °F 53.2 °F 87% 30.23 in 10.0 mi North - - N/A   Overcast
5:35 AM 57.2 °F 53.1 °F 86% 30.23 in 10.0 mi North - - N/A   Mostly Cloudy
5:55 AM 57.2 °F 53.4 °F 87% 30.24 in 10.0 mi North - - N/A   Scattered Clouds
6:15 AM 57.0 °F 53.6 °F 88% 30.24 in 10.0 mi North - - N/A   Scattered Clouds
6:35 AM 57.2 °F 53.6 °F 88% 30.25 in 10.0 mi North - - N/A   Mostly Cloudy
6:55 AM 57.2 °F 53.8 °F 88% 30.25 in 10.0 mi North - - N/A   Scattered Clouds
7:15 AM 56.8 °F 53.8 °F 89% 30.25 in 10.0 mi North - - N/A   Scattered Clouds
7:35 AM 57.2 °F 53.8 °F 88% 30.25 in 10.0 mi North - - N/A   Mostly Cloudy
7:55 AM 57.0 °F 54.0 °F 89% 30.26 in 10.0 mi North - - N/A   Scattered Clouds
8:15 AM 57.4 °F 54.0 °F 88% 30.27 in 10.0 mi North - - N/A   Clear
8:35 AM 58.6 °F 54.9 °F 87% 30.27 in 10.0 mi North - - N/A   Mostly Cloudy
8:55 AM 60.4 °F 55.4 °F 83% 30.27 in 10.0 mi North - - N/A   Mostly Cloudy
9:15 AM 62.1 °F 56.3 °F 81% 30.28 in 10.0 mi North - - N/A   Scattered Clouds
9:35 AM 64.6 °F 56.5 °F 75% 30.28 in 10.0 mi North - - N/A   Scattered Clouds
9:55 AM 67.1 °F 56.5 °F 69% 30.28 in 10.0 mi North - - N/A   Scattered Clouds
10:15 AM 68.5 °F 56.8 °F 66% 30.28 in 10.0 mi North - - N/A   Mostly Cloudy
10:35 AM 70.3 °F 57.6 °F 64% 30.29 in 10.0 mi North - - N/A   Overcast
10:55 AM 70.5 °F 57.7 °F 64% 30.30 in 10.0 mi North - - N/A   Overcast
11:15 AM 70.7 °F 57.6 °F 63% 30.30 in 10.0 mi North - - N/A   Overcast
11:35 AM 71.1 °F 57.9 °F 63% 30.30 in 10.0 mi North - - N/A   Overcast
11:55 AM 73.9 °F 58.3 °F 58% 30.29 in 10.0 mi North - - N/A   Mostly Cloudy
12:15 PM 74.5 °F 58.5 °F 57% 30.28 in 10.0 mi North - - N/A   Mostly Cloudy
12:35 PM 75.7 °F 58.3 °F 55% 30.28 in 10.0 mi North - - N/A   Mostly Cloudy
12:55 PM 76.5 °F 58.3 °F 53% 30.28 in 10.0 mi North - - N/A   Overcast
1:15 PM 76.5 °F 58.8 °F 54% 30.28 in 10.0 mi North - - N/A   Overcast
1:35 PM 76.8 °F 58.8 °F 54% 30.27 in 10.0 mi North - - N/A   Overcast
1:55 PM 76.5 °F 59.4 °F 55% 30.26 in 10.0 mi North - - N/A   Overcast
2:15 PM 77.2 °F 59.5 °F 54% 30.26 in 10.0 mi North - - N/A   Overcast
2:35 PM 73.4 °F 63.5 °F 71% 30.25 in 10.0 mi North - - N/A   Overcast
2:55 PM 75.6 °F 62.2 °F 63% 30.25 in 10.0 mi North - - N/A   Overcast
3:15 PM 75.9 °F 61.9 °F 62% 30.24 in 10.0 mi North - - N/A   Overcast
3:35 PM 76.8 °F 61.7 °F 59% 30.24 in 10.0 mi North - - N/A   Mostly Cloudy
3:55 PM 77.7 °F 61.7 °F 58% 30.23 in 10.0 mi North - - N/A   Mostly Cloudy
4:15 PM 78.1 °F 61.0 °F 56% 30.22 in 10.0 mi North - - N/A   Mostly Cloudy
4:35 PM 77.9 °F 62.1 °F 58% 30.21 in 10.0 mi North - - N/A   Overcast
4:55 PM 77.0 °F 62.2 °F 60% 30.21 in 10.0 mi North - - N/A   Mostly Cloudy
5:15 PM 75.9 °F 63.7 °F 66% 30.22 in 10.0 mi North - - N/A   Drizzle
5:35 PM 72.1 °F 66.7 °F 83% 30.21 in 7.0 mi North - - N/A Rain Light Rain
5:55 PM 70.7 °F 67.1 °F 88% 30.21 in 10.0 mi North - - N/A   Overcast
6:15 PM 70.0 °F 67.5 °F 92% 30.21 in 10.0 mi North - - N/A   Overcast
6:35 PM 70.0 °F 67.3 °F 91% 30.21 in 10.0 mi North - - N/A   Overcast
6:55 PM 70.0 °F 66.7 °F 89% 30.21 in 10.0 mi North - - N/A   Overcast
7:15 PM 69.1 °F 66.7 °F 92% 30.22 in 10.0 mi North - - N/A   Overcast
7:35 PM 68.9 °F 66.7 °F 93% 30.22 in 10.0 mi North - - N/A   Overcast
7:55 PM 68.4 °F 66.4 °F 93% 30.22 in 10.0 mi North - - N/A   Overcast
8:15 PM 68.2 °F 66.4 °F 94% 30.23 in 10.0 mi North - - N/A   Mostly Cloudy
8:35 PM 68.0 °F 66.2 °F 94% 30.23 in 10.0 mi North - - N/A   Mostly Cloudy
8:55 PM 67.6 °F 66.0 °F 95% 30.22 in 5.0 mi North - - N/A Rain Light Rain
9:15 PM 67.8 °F 66.2 °F 95% 30.23 in 7.0 mi North - - N/A   Overcast
9:35 PM 67.8 °F 66.6 °F 96% 30.24 in 7.0 mi North - - N/A   Overcast
9:55 PM 67.5 °F 66.6 °F 97% 30.24 in 7.0 mi North - - N/A Rain Light Rain
10:15 PM 67.1 °F 66.2 °F 97% 30.24 in 5.0 mi North - - N/A   Mostly Cloudy
10:40 PM 67.1 °F 66.2 °F 97% 30.23 in 7.0 mi North - - N/A Rain Light Rain
11:00 PM 66.6 °F 65.8 °F 98% 30.23 in 7.0 mi North - - N/A   Overcast
11:20 PM 66.4 °F 65.7 °F 98% 30.23 in 7.0 mi North - - N/A   Mostly Cloudy
11:35 PM 66.2 °F 65.3 °F 97% 30.23 in 7.0 mi North - - N/A   Scattered Clouds
11:55 PM 66.4 °F 65.5 °F 97% 30.22 in 7.0 mi North - - N/A   Mostly Cloudy